Regional Weather Roundup
Issued by NWS

Home | Current Version | Previous Version | Graphics & Text | Print | Product List | Glossary On
Versions: 1 2 3 4 5 6 7 8 9 10 11 12 13 14 15 16 17 18 19 20 21 22 23 24 25 26 27 28 29 30 31 32 33 34 35 36 37 38 39 40 41 42 43 44 45 46 47 48 49 50
000
ASUS43 KOAX 241802
RWRNE

WEATHER ROUNDUP FOR NEBRASKA
NATIONAL WEATHER SERVICE OMAHA NE
100 PM CDT MON JUL 24 2017

NOTES: SATELLITE DATA IS BEING USED TO AUGMENT CLOUD COVER ABOVE
       12000 FEET.
       "FAIR" INDICATES FEW OR NO CLOUDS BELOW 12,000 FEET WITH NO
       SIGNIFICANT WEATHER AND/OR OBSTRUCTIONS TO VISIBILITY.


NEZ001>004-019>022-054>056-241900-
NEBRASKA PANHANDLE

CITY           SKY/WX    TMP DP  RH WIND       PRES   REMARKS
SCOTTSBLUFF    SUNNY     93  53  25 W5        29.95S HX  90
6HR MIN TEMP:  73; 6HR MAX TEMP:  94;

ALLIANCE       SUNNY     96  52  22 S20G26    29.94F HX  93
6HR MIN TEMP:  70; 6HR MAX TEMP:  96;

CHADRON        SUNNY     98  46  17 W8        29.86S HX  94
6HR MIN TEMP:  69; 6HR MAX TEMP:  98;

GORDON         FAIR      91  60  35 S23       29.90F HX  91
6HR MIN TEMP:  59; 6HR MAX TEMP:  91;

KIMBALL        SUNNY     92  49  22 SW16      30.04S
SIDNEY         SUNNY     94  49  21 SW20G25   30.02F HX  90
6HR MIN TEMP:  68; 6HR MAX TEMP:  96;

$$

NEZ057>060-069>072-079>082-241900-
SOUTHWEST NEBRASKA

CITY           SKY/WX    TMP DP  RH WIND       PRES   REMARKS
NORTH PLATTE   SUNNY     94  61  33 S14G22    29.95F HX  94
6HR MIN TEMP:  63; 6HR MAX TEMP:  94;

IMPERIAL       SUNNY     94  55  26 S15       29.98F HX  92
6HR MIN TEMP:  62; 6HR MAX TEMP:  95;

LEXINGTON      SUNNY     87  70  57 S10       29.98F HX  91
MCCOOK         SUNNY     96  59  29 S13G22    29.97F HX  95
6HR MIN TEMP:  63; 6HR MAX TEMP:  96;

OGALLALA       SUNNY     93  56  29 S18G25    29.95F HX  91
$$

NEZ005>010-023>029-035>040-094-241900-
NORTH CENTRAL NEBRASKA

CITY           SKY/WX    TMP DP  RH WIND       PRES   REMARKS
VALENTINE      SUNNY    100  49  17 S22G33    29.86F HX  97
6HR MIN TEMP:  66; 6HR MAX TEMP: 100;

AINSWORTH      SUNNY     93  61  33 S20G25    29.90F HX  93
BROKEN BOW     SUNNY     91  66  43 S14G24    29.96F HX  93
6HR MIN TEMP:  63; 6HR MAX TEMP:  91;

O`NEILL        SUNNY     85  66  53 S17G25    29.95F
ORD            SUNNY     88  65  46 SE10      29.95F HX  90
6HR MIN TEMP:  63; 6HR MAX TEMP:  88;

THEDFORD       SUNNY     94  57  28 S24G31    29.95F HX  93
$$

NEZ041-046>049-061>064-073>077-083>087-241900-
SOUTH CENTRAL NEBRASKA

CITY           SKY/WX    TMP DP  RH WIND       PRES   REMARKS
GRAND ISLAND   SUNNY     84  70  62 SE15      29.99F
6HR MIN TEMP:  65; 6HR MAX TEMP:  85;

AURORA         SUNNY     83  67  59 S12       30.00F
HASTINGS       SUNNY     86  69  56 S12       30.01F HX  90
6HR MIN TEMP:  68; 6HR MAX TEMP:  86;

HEBRON         SUNNY     87  68  53 S7        30.00F HX  90
HOLDREGE       SUNNY     85  69  57 S13       30.00S
KEARNEY        SUNNY     86  71  60 S13       29.99F HX  91
YORK           SUNNY     82  68  61 SE10      30.00F
$$

NEZ011>018-030>034-042>045-241900-
NORTHEAST NEBRASKA

CITY           SKY/WX    TMP DP  RH WIND       PRES   REMARKS
NORFOLK        SUNNY     83  62  49 SE13      29.99F
6HR MIN TEMP:  61; 6HR MAX TEMP:  84;

ALBION         SUNNY     85  67  55 S10       29.98F
BLAIR          SUNNY     81  64  56 SE5       30.02F
COLUMBUS       SUNNY     82  66  58 SE13      30.00F
FREMONT        SUNNY     81  63  54 S8        30.01F
TEKAMAH        SUNNY     80  64  58 VRB7      30.01F
6HR MIN TEMP:  59; 6HR MAX TEMP:  80;

WAYNE          SUNNY     82  65  57 SE12      30.00F
$$

NEZ050>053-065>068-078-088>093-241900-
SOUTHEAST NEBRASKA

CITY           SKY/WX    TMP DP  RH WIND       PRES   REMARKS
LINCOLN        SUNNY     83  65  54 SE9       30.01F
6HR MIN TEMP:  63; 6HR MAX TEMP:  84;

OMAHA EPPLEY   MOSUNNY   82  62  50 S7        30.01F
6HR MIN TEMP:  63; 6HR MAX TEMP:  83;

BEATRICE       SUNNY     85  65  51 SE8       30.00F
FALLS CITY     SUNNY     83  66  56 SE7       30.01F
6HR MIN TEMP:  63; 6HR MAX TEMP:  84;

NEBRASKA CITY  SUNNY     79  67  66 SE7       30.02F
PLATTSMOUTH    SUNNY     80  64  58 SE6       30.02F
$$

NEZ044-045-051>053-067-241900-
OMAHA AREA

CITY           SKY/WX    TMP DP  RH WIND       PRES   REMARKS
OMAHA EPPLEY   MOSUNNY   82  62  50 S7        30.01F
6HR MIN TEMP:  63; 6HR MAX TEMP:  83;

BLAIR          SUNNY     81  64  56 SE5       30.02F
FREMONT        SUNNY     81  63  54 S8        30.01F
MILLARD        MOSUNNY   82  66  58 SE8       30.01F
OFFUTT AFB     SUNNY     81  63  54 E7        30.01F
PLATTSMOUTH    SUNNY     80  64  58 SE6       30.02F
WAHOO          FAIR      81  64  56 SE9       30.00F
$$



USA.gov is the U.S. government's official web portal to all federal, state and local government web resources and services.